Simultaneous Nadir Overpasses (SNOs) Predictions

Prediction of SNOs between GOES-15 and METOP-C Satellite Orbit:

Table of predicted SNOs for the next 14.0 days since TLE Epoch: 12/26/2023
Index Date Time (GOES-15) GOES-15 Lat,Lon METOP-C Lat,Lon Distance(km) Time Diff (sec)
1 12/27/2023 05:32:35 -0.09, 61.28 0.43, 58.98 262.95 80
2 12/28/2023 05:14:36 -0.09, 61.29 -0.72, 63.96 305.17 80
3 12/29/2023 17:33:36 0.07, 61.36 -0.37, 59.38 225.62 80
4 12/30/2023 17:10:16 0.08, 61.38 0.72, 64.38 341.35 80
5 01/01/2024 05:29:09 -0.07, 61.35 0.25, 59.81 175.30 80
6 01/02/2024 05:11:10 -0.07, 61.36 -0.84, 64.81 392.79 80
7 01/03/2024 17:30:09 0.06, 61.42 -0.24, 60.22 137.24 80
8 01/04/2024 17:06:51 0.06, 61.44 0.92, 65.21 429.44 80
9 01/06/2024 05:25:42 -0.06, 61.43 0.14, 60.66 88.94 80
10 01/07/2024 05:07:44 -0.06, 61.45 -1.02, 65.64 478.52 80
11 01/08/2024 17:26:43 0.05, 61.51 -0.06, 61.06 51.79 80
